• In Uzbekistan
  • List of Countries
  • For 7 days
  • Water Temperature
  • Satellite Maps
  • Weather Map
  • Weather Widgets
  • user-avatar
    Login

    Hourly Weather Kalgoorlie

    Today, 25 February, Saturday

    Time Temperature Precipitation Wind Pressure Humidity
    00:00 +22°C° 0 mm 5 mps 734 mmHg 35%
    01:00 +21°C° 0 mm 6 mps 734 mmHg 40%
    02:00 +20°C° 0 mm 6 mps 733 mmHg 48%
    03:00 +20°C° 0 mm 6 mps 733 mmHg 52%
    04:00 +19°C° 0 mm 6 mps 734 mmHg 56%
    05:00 +19°C° 0 mm 6 mps 734 mmHg 60%
    06:00 +20°C° 0 mm 6 mps 734 mmHg 57%
    07:00 +21°C° 0 mm 6 mps 734 mmHg 54%
    08:00 +22°C° 0 mm 6 mps 734 mmHg 50%
    09:00 +24°C° 0 mm 6 mps 734 mmHg 42%
    10:00 +28°C° 0 mm 6 mps 733 mmHg 33%
    11:00 +32°C° 0 mm 6 mps 733 mmHg 24%
    12:00 +33°C° 0 mm 5 mps 733 mmHg 21%
    13:00 +34°C° 0 mm 4 mps 732 mmHg 18%
    14:00 +35°C° 0 mm 3 mps 731 mmHg 15%
    15:00 +35°C° 0 mm 3 mps 731 mmHg 15%
    16:00 +35°C° 0 mm 2 mps 731 mmHg 14%
    17:00 +35°C° 0 mm 2 mps 730 mmHg 14%
    18:00 +32°C° 0 mm 2 mps 730 mmHg 16%
    19:00 +30°C° 0 mm 3 mps 730 mmHg 18%
    20:00 +29°C° 0 mm 3 mps 730 mmHg 20%
    21:00 +28°C° 0 mm 4 mps 730 mmHg 21%
    22:00 +27°C° 0 mm 4 mps 730 mmHg 23%
    23:00 +26°C° 0 mm 5 mps 730 mmHg 24%

    Tomorrow, 26 February, Sunday

    Time Temperature Precipitation Wind Pressure Humidity
    00:00 +26°C° 0 mm 5 mps 729 mmHg 25%
    01:00 +25°C° 0 mm 5 mps 729 mmHg 26%
    02:00 +23°C° 0 mm 4 mps 729 mmHg 27%
    03:00 +23°C° 0 mm 4 mps 729 mmHg 28%
    04:00 +23°C° 0 mm 4 mps 729 mmHg 29%
    05:00 +22°C° 0 mm 4 mps 728 mmHg 30%
    06:00 +25°C° 0 mm 5 mps 729 mmHg 27%
    07:00 +26°C° 0 mm 5 mps 729 mmHg 25%
    08:00 +28°C° 0 mm 6 mps 729 mmHg 23%
    09:00 +32°C° 0 mm 6 mps 729 mmHg 19%
    10:00 +35°C° 0 mm 6 mps 729 mmHg 16%
    11:00 +38°C° 0 mm 6 mps 729 mmHg 13%
    12:00 +39°C° 0 mm 5 mps 728 mmHg 13%
    13:00 +40°C° 0 mm 5 mps 728 mmHg 12%
    14:00 +41°C° 0 mm 5 mps 727 mmHg 12%
    15:00 +41°C° 0 mm 4 mps 727 mmHg 12%
    16:00 +41°C° 0 mm 4 mps 727 mmHg 12%
    17:00 +40°C° 0 mm 3 mps 726 mmHg 12%
    18:00 +38°C° 0 mm 3 mps 727 mmHg 14%
    19:00 +36°C° 0 mm 3 mps 727 mmHg 17%
    20:00 +34°C° 0 mm 3 mps 727 mmHg 19%
    21:00 +33°C° 0 mm 3 mps 727 mmHg 21%
    22:00 +32°C° 0 mm 2 mps 727 mmHg 24%
    23:00 +31°C° 0 mm 2 mps 727 mmHg 26%

    Day after tomorrow, 27 February, Monday

    Time Temperature Precipitation Wind Pressure Humidity
    00:00 +30°C° 0 mm 2 mps 727 mmHg 26%
    01:00 +30°C° 0 mm 3 mps 727 mmHg 27%
    02:00 +30°C° 0 mm 3 mps 727 mmHg 27%
    03:00 +29°C° 0 mm 3 mps 728 mmHg 27%
    04:00 +28°C° 0 mm 3 mps 728 mmHg 26%
    05:00 +28°C° 0 mm 3 mps 728 mmHg 26%
    06:00 +29°C° 0 mm 4 mps 728 mmHg 23%
    07:00 +30°C° 0 mm 5 mps 729 mmHg 21%
    08:00 +33°C° 0 mm 5 mps 729 mmHg 18%
    09:00 +35°C° 0 mm 5 mps 729 mmHg 17%
    10:00 +37°C° 0 mm 5 mps 729 mmHg 15%
    11:00 +40°C° 0 mm 4 mps 729 mmHg 14%
    12:00 +41°C° 0 mm 4 mps 728 mmHg 14%
    13:00 +42°C° 0 mm 5 mps 728 mmHg 13%
    14:00 +43°C° 0 mm 5 mps 727 mmHg 13%
    15:00 +42°C° 0 mm 5 mps 727 mmHg 15%
    16:00 +41°C° 0 mm 5 mps 727 mmHg 16%
    17:00 +40°C° 0 mm 5 mps 727 mmHg 17%
    18:00 +37°C° 0 mm 5 mps 728 mmHg 22%
    19:00 +35°C° 0 mm 6 mps 728 mmHg 27%
    20:00 +33°C° 0 mm 7 mps 729 mmHg 33%
    21:00 +31°C° 0 mm 8 mps 729 mmHg 41%
    22:00 +28°C° 0 mm 8 mps 729 mmHg 50%
    23:00 +24°C° 0 mm 9 mps 730 mmHg 59%

    28 February, Tuesday

    Time Temperature Precipitation Wind Pressure Humidity
    00:00 +23°C° 0 mm 8 mps 730 mmHg 61%
    01:00 +23°C° 0 mm 7 mps 730 mmHg 62%
    02:00 +22°C° 0 mm 7 mps 730 mmHg 64%
    03:00 +21°C° 0 mm 7 mps 730 mmHg 66%
    04:00 +21°C° 0 mm 6 mps 730 mmHg 68%
    05:00 +20°C° 0 mm 6 mps 730 mmHg 69%
    06:00 +21°C° 0 mm 6 mps 730 mmHg 67%
    07:00 +22°C° 0 mm 6 mps 731 mmHg 65%
    08:00 +22°C° 0 mm 6 mps 731 mmHg 62%
    09:00 +26°C° 0 mm 6 mps 731 mmHg 52%
    10:00 +28°C° 0 mm 5 mps 731 mmHg 42%
    11:00 +32°C° 0 mm 5 mps 731 mmHg 32%
    12:00 +34°C° 0 mm 4 mps 731 mmHg 29%
    13:00 +35°C° 0 mm 4 mps 730 mmHg 25%
    14:00 +37°C° 0 mm 4 mps 729 mmHg 21%
    15:00 +37°C° 0 mm 4 mps 729 mmHg 21%
    16:00 +37°C° 0 mm 4 mps 729 mmHg 21%
    17:00 +37°C° 0 mm 5 mps 729 mmHg 21%
    18:00 +35°C° 0 mm 5 mps 729 mmHg 24%
    19:00 +33°C° 0 mm 5 mps 730 mmHg 28%
    20:00 +32°C° 0 mm 5 mps 730 mmHg 31%
    21:00 +29°C° 0 mm 6 mps 730 mmHg 38%
    22:00 +28°C° 0 mm 6 mps 730 mmHg 46%
    23:00 +26°C° 0 mm 6 mps 730 mmHg 53%

    1 March, Wednesday

    Time Temperature Precipitation Wind Pressure Humidity
    00:00 +24°C° 0 mm 6 mps 730 mmHg 58%
    01:00 +23°C° 0 mm 6 mps 730 mmHg 63%
    02:00 +22°C° 0 mm 6 mps 730 mmHg 68%
    03:00 +22°C° 0 mm 5 mps 730 mmHg 71%
    04:00 +21°C° 0 mm 5 mps 730 mmHg 73%
    05:00 +20°C° 0 mm 5 mps 730 mmHg 76%
    06:00 +21°C° 0 mm 5 mps 730 mmHg 70%
    07:00 +23°C° 0 mm 5 mps 730 mmHg 64%
    08:00 +25°C° 0 mm 5 mps 731 mmHg 59%
    09:00 +27°C° 0 mm 5 mps 731 mmHg 48%
    10:00 +30°C° 0 mm 5 mps 730 mmHg 37%
    11:00 +34°C° 0 mm 5 mps 730 mmHg 27%
    12:00 +36°C° 0 mm 5 mps 730 mmHg 23%
    13:00 +38°C° 0 mm 4 mps 729 mmHg 18%
    14:00 +41°C° 0 mm 4 mps 729 mmHg 14%
    15:00 +40°C° 0 mm 3 mps 728 mmHg 13%
    16:00 +41°C° 0 mm 1 mps 728 mmHg 12%
    17:00 +38°C° 0 mm 0 mps 728 mmHg 11%
    18:00 +38°C° 0 mm 2 mps 728 mmHg 14%
    19:00 +36°C° 0 mm 3 mps 728 mmHg 17%
    20:00 +34°C° 0 mm 4 mps 728 mmHg 19%
    21:00 +33°C° 0 mm 4 mps 728 mmHg 20%
    22:00 +32°C° 0 mm 4 mps 728 mmHg 21%
    23:00 +30°C° 0 mm 4 mps 728 mmHg 21%

    2 March, Thursday

    Time Temperature Precipitation Wind Pressure Humidity
    00:00 +29°C° 0 mm 4 mps 728 mmHg 22%
    01:00 +29°C° 0 mm 4 mps 728 mmHg 23%
    02:00 +28°C° 0 mm 4 mps 728 mmHg 23%
    03:00 +28°C° 0 mm 3 mps 728 mmHg 24%
    04:00 +27°C° 0 mm 3 mps 728 mmHg 24%
    05:00 +27°C° 0 mm 3 mps 729 mmHg 25%
    06:00 +29°C° 0 mm 4 mps 729 mmHg 23%
    07:00 +30°C° 0 mm 4 mps 730 mmHg 20%
    08:00 +33°C° 0 mm 5 mps 730 mmHg 18%
    09:00 +36°C° 0 mm 6 mps 730 mmHg 15%
    10:00 +40°C° 0 mm 7 mps 730 mmHg 13%
    11:00 +44°C° 0 mm 8 mps 730 mmHg 10%
    12:00 +44°C° 0 mm 7 mps 729 mmHg 9%
    13:00 +45°C° 0 mm 6 mps 729 mmHg 8%
    14:00 +46°C° 0 mm 5 mps 728 mmHg 8%
    15:00 +44°C° 0 mm 4 mps 728 mmHg 8%
    16:00 +44°C° 0 mm 3 mps 728 mmHg 9%
    17:00 +42°C° 0 mm 2 mps 728 mmHg 9%
    18:00 +40°C° 0 mm 2 mps 728 mmHg 11%
    19:00 +39°C° 0 mm 2 mps 729 mmHg 12%
    20:00 +37°C° 0 mm 3 mps 729 mmHg 14%
    21:00 +36°C° 0 mm 3 mps 729 mmHg 17%
    22:00 +35°C° 0 mm 3 mps 729 mmHg 20%
    23:00 +34°C° 0 mm 3 mps 729 mmHg 23%
    Show more